Regional Weather Roundup
Issued by NWS

Home | Current Version | Previous Version | Text Only | Print | Product List | Glossary On
Versions: 1 2 3 4 5 6 7 8 9 10 11 12 13 14 15 16 17 18 19 20 21 22 23 24 25 26 27 28 29 30 31 32 33 34 35 36 37 38 39 40 41 42 43 44 45 46 47 48 49 50
000
ASUS43 KOAX 061903
RWRNE

WEATHER ROUNDUP FOR NEBRASKA
NATIONAL WEATHER SERVICE OMAHA NE
100 PM CST MON DEC 06 2021

NOTES: SATELLITE DATA IS BEING USED TO AUGMENT CLOUD COVER ABOVE
       12000 FEET.
       "FAIR" INDICATES FEW OR NO CLOUDS BELOW 12,000 FEET WITH NO
       SIGNIFICANT WEATHER AND/OR OBSTRUCTIONS TO VISIBILITY.


NEZ001>004-019>022-054>056-062000-
NEBRASKA PANHANDLE

CITY           SKY/WX    TMP DP  RH WIND       PRES   REMARKS
SCOTTSBLUFF    PTSUNNY   33   4  29 S17       30.08F WCI  22
ALLIANCE       PTSUNNY   26   8  46 S16       30.10F WCI  14
CHADRON        CLOUDY    26  13  57 E5        30.11F WCI  20
GORDON         CLOUDY    21  12  66 SW9       30.13F WCI  11
KIMBALL        MOSUNNY   28   2  33 S21       30.07F WCI  15
SIDNEY         MOSUNNY   29   4  34 S15G24    30.10F WCI  18
$$

NEZ057>060-069>072-079>082-062000-
SOUTHWEST NEBRASKA

CITY           SKY/WX    TMP DP  RH WIND       PRES   REMARKS
NORTH PLATTE   PTSUNNY   26  11  52 CALM      30.26F
IMPERIAL       PTSUNNY   31  11  43 S7        30.22F WCI  24
LEXINGTON      PTSUNNY   25   8  47 CALM      30.32F
MCCOOK         PTSUNNY   27  12  53 CALM      30.29F
OGALLALA       PTSUNNY   32   7  35 S6        30.20F WCI  26
$$

NEZ005>010-023>029-035>040-094-062000-
NORTH CENTRAL NEBRASKA

CITY           SKY/WX    TMP DP  RH WIND       PRES   REMARKS
VALENTINE      PTSUNNY   21   5  50 SW7       30.24F WCI  12
AINSWORTH      MOSUNNY   20   4  49 SW6       30.24F WCI  12
BROKEN BOW     PTSUNNY   21   6  52 SW6       30.29F WCI  13
O`NEILL        MOSUNNY   17   2  52 CALM      30.31F
ORD            MOSUNNY   21   5  50 W8        30.33F WCI  11
THEDFORD       PTSUNNY   22  11  63 S9        30.24F WCI  11
$$

NEZ041-046>049-061>064-073>077-083>087-062000-
SOUTH CENTRAL NEBRASKA

CITY           SKY/WX    TMP DP  RH WIND       PRES   REMARKS
GRAND ISLAND   PTSUNNY   22   5  48 W10       30.38F WCI  11
AURORA         MOSUNNY   23   6  48 W12       30.38F WCI  11
HASTINGS       PTSUNNY   23   8  52 NW8       30.36F WCI  14
HEBRON         CLOUDY    26  11  52 N9        30.39F WCI  17
HOLDREGE       CLOUDY    25  11  54 N5        30.34F WCI  19
KEARNEY        CLOUDY    23   8  52 NW6       30.35F WCI  16
YORK           MOSUNNY   23   7  50 NW9       30.38S WCI  13
$$

NEZ011>018-030>034-042>045-062000-
NORTHEAST NEBRASKA

CITY           SKY/WX    TMP DP  RH WIND       PRES   REMARKS
NORFOLK        SUNNY     19  -2  39 NW10      30.35F WCI   7
ALBION         MOSUNNY   21   3  46 NW9       30.35F WCI  11
BLAIR          SUNNY     22   7  51 NW12G17   30.36S WCI  11
COLUMBUS       MOSUNNY   21   4  47 NW12      30.38F WCI   9
FREMONT        SUNNY     25   4  41 NW12G20   30.38S WCI  14
TEKAMAH        SUNNY     24   4  42 NW14      30.38F WCI  12
WAYNE          SUNNY     19  -1  41 NW14      30.35F WCI   5
$$

NEZ050>053-065>068-078-088>093-062000-
SOUTHEAST NEBRASKA

CITY           SKY/WX    TMP DP  RH WIND       PRES   REMARKS
LINCOLN        MOSUNNY   28   7  41 NW10      30.39F WCI  19
OMAHA EPPLEY   MOSUNNY   26   8  46 NW9       30.38F WCI  17
BEATRICE       MOSUNNY   28  11  48 NW10      30.38F WCI  19
FALLS CITY     MOSUNNY   30  11  45 NW14      30.38S WCI  19
NEBRASKA CITY  SUNNY     27   9  47 NW12      30.37F WCI  17
PLATTSMOUTH    SUNNY     26   9  48 NW13      30.36F WCI  15
$$

NEZ044-045-051>053-067-062000-
OMAHA AREA

CITY           SKY/WX    TMP DP  RH WIND       PRES   REMARKS
OMAHA EPPLEY   MOSUNNY   26   8  46 NW9       30.38F WCI  17
BLAIR          SUNNY     22   7  51 NW12G17   30.36S WCI  11
FREMONT        SUNNY     25   4  41 NW12G20   30.38S WCI  14
MILLARD        SUNNY     25   7  45 NW14      30.39S WCI  14
PLATTSMOUTH    SUNNY     26   9  48 NW13      30.36F WCI  15
WAHOO          SUNNY     24   7  48 NW12      30.38F WCI  13
$$



USA.gov is the U.S. government's official web portal to all federal, state and local government web resources and services.